Location: Elm Mott Branch
(32.1549°N, 97.5139°W)
Time: 10:35:25
(UTC+00:00)

Cosmos 1441 Rocket - Pass Details

Date: 18 November 2025
Orbit: 424 x 448 km, 81.1° (Epoch: 07 December)

Event Time Altitude Azimuth Distance (km) Brightness Sun altitude
Rises 12:28:48 0° 201° (SSW) 2,389 6.6 -7.4°
Reaches altitude 10° 12:30:55 10° 209° (SSW) 1,522 5.5 -7.0°
Maximum altitude 12:34:03 40° 280° (W) 647 3.2 -6.4°
Drops below altitude 10° 12:37:12 10° 352° (N) 1,523 5.3 -5.7°
Sets 12:39:19 0° 360° (N) 2,390 6.4 -5.3°
